Lake George Weather Center

Moon Phase Calendar



Lake George Water Level
Online Cameras

 


      

Current Conditions in Pierson
10/29/2020 8:49:07 PM

79°F
Feels Like 67
Clear
Humidity
1%
Pressure
29.83"
Wind
7.9 mph (SW)
Dew Point
-24°F
UV Index
6/10 (High)
Visibility
6 mi

Hourly Forecast

Date & Time Thu, Oct 29
8:00 PM
Thu, Oct 29
9:00 PM
Thu, Oct 29
10:00 PM
Thu, Oct 29
11:00 PM
Fri, Oct 30
12:00 AM
Fri, Oct 30
1:00 AM
Fri, Oct 30
2:00 AM
Fri, Oct 30
3:00 AM
Fri, Oct 30
4:00 AM
Fri, Oct 30
5:00 AM
Fri, Oct 30
6:00 AM
Fri, Oct 30
7:00 AM
Fri, Oct 30
8:00 AM
Fri, Oct 30
9:00 AM
Fri, Oct 30
10:00 AM
Fri, Oct 30
11:00 AM
Fri, Oct 30
12:00 PM
Fri, Oct 30
1:00 PM
Fri, Oct 30
2:00 PM
Fri, Oct 30
3:00 PM
Fri, Oct 30
4:00 PM
Fri, Oct 30
5:00 PM
Fri, Oct 30
6:00 PM
Fri, Oct 30
7:00 PM
Fri, Oct 30
8:00 PM
Fri, Oct 30
9:00 PM
Fri, Oct 30
10:00 PM
Fri, Oct 30
11:00 PM
Sat, Oct 31
12:00 AM
Sat, Oct 31
1:00 AM
Sat, Oct 31
2:00 AM
Sat, Oct 31
3:00 AM
Sat, Oct 31
4:00 AM
Sat, Oct 31
5:00 AM
Sat, Oct 31
6:00 AM
Sat, Oct 31
7:00 AM
Sat, Oct 31
8:00 AM
Sat, Oct 31
9:00 AM
Sat, Oct 31
10:00 AM
Sat, Oct 31
11:00 AM
Sat, Oct 31
12:00 PM
Sat, Oct 31
1:00 PM
Sat, Oct 31
2:00 PM
Sat, Oct 31
3:00 PM
Sat, Oct 31
4:00 PM
Sat, Oct 31
5:00 PM
Sat, Oct 31
6:00 PM
Sat, Oct 31
7:00 PM
Condition
Clouds

Clear

Clear

Clear

Rain

Clouds

Clouds

Clouds

Clouds

Clouds

Clouds

Clear

Clear

Clear

Clear

Clear

Clear

Clear

Clear

Clear

Clear

Clear

Clear

Clear

Clear

Clear

Clear

Clear

Clear

Clear

Clear

Clear

Clouds

Clouds

Clouds

Clouds

Clouds

Clouds

Clouds

Clouds

Clouds

Clouds

Clouds

Clouds

Clouds

Clouds

Rain

Clouds
Temperature 79°F79°F78°F78°F76°F74°F73°F70°F67°F63°F61°F59°F58°F60°F63°F66°F70°F74°F76°F77°F77°F76°F72°F66°F64°F63°F62°F62°F62°F62°F62°F62°F63°F66°F66°F67°F68°F71°F76°F78°F79°F80°F81°F81°F80°F78°F75°F72°F
Feels Like 67°F75°F80°F81°F79°F74°F70°F66°F62°F59°F56°F55°F54°F55°F58°F62°F66°F69°F72°F73°F73°F73°F70°F64°F62°F62°F62°F62°F62°F62°F62°F62°F63°F66°F67°F68°F70°F72°F75°F77°F78°F79°F80°F80°F80°F78°F76°F74°F
Cloudiness 11%6%4%8%20%30%40%49%24%16%12%10%8%0%0%0%0%0%0%0%0%0%0%0%0%0%0%0%0%0%0%3%23%45%55%62%67%33%27%26%33%37%36%17%19%28%39%32%
Visibility 6 mi6 mi6 mi6 mi6 mi6 mi6 mi6 mi6 mi6 mi6 mi6 mi6 mi6 mi6 mi6 mi6 mi6 mi6 mi6 mi6 mi6 mi6 mi6 mi6 mi6 mi6 mi6 mi6 mi6 mi6 mi6 mi6 mi6 mi6 mi6 mi6 mi6 mi6 mi6 mi6 mi6 mi6 mi6 mi6 mi6 mi6 mi6 mi
Precipitation 2%0%0%0%21%3%0%0%0%0%0%0%0%0%0%0%0%0%0%0%0%0%0%0%0%0%0%0%0%0%0%0%0%0%0%0%0%4%0%7%5%8%8%19%19%15%38%14%
Humidity 1%40%65%80%85%69%57%53%54%53%53%55%58%54%49%44%39%35%32%30%31%34%46%57%64%69%72%75%76%78%79%81%80%75%75%76%77%74%62%57%54%52%49%50%53%63%72%80%
Dew Point -24°F52°F66°F71°F71°F63°F57°F53°F49°F46°F44°F44°F44°F44°F44°F44°F44°F44°F44°F44°F45°F46°F51°F51°F52°F53°F54°F54°F55°F55°F56°F56°F57°F58°F58°F60°F61°F63°F62°F61°F61°F61°F61°F61°F62°F65°F66°F65°F
Pressure 29.83"29.83"29.88"29.88"29.88"29.91"29.91"29.91"29.91"29.91"29.94"29.97"29.97"30"30.03"30.03"30.06"30.03"30.03"30"30"30"30"30.03"30.06"30.09"30.09"30.12"30.12"30.09"30.09"30.09"30.09"30.09"30.12"30.12"30.15"30.18"30.18"30.18"30.18"30.18"30.15"30.12"30.12"30.12"30.12"30.12"
Wind Speed 8 mph7.9 mph7.4 mph7.5 mph9.2 mph8.5 mph8.1 mph8.6 mph7.8 mph7 mph6.1 mph4.6 mph4 mph6.8 mph6.1 mph5.8 mph5.7 mph5.6 mph5.3 mph5 mph4.6 mph4.5 mph3.5 mph4 mph3.9 mph3.3 mph3.2 mph3.4 mph3.3 mph3.3 mph3.4 mph3.3 mph3.4 mph2.9 mph3.2 mph3.2 mph3.6 mph4.8 mph7.8 mph8.4 mph8.9 mph8.4 mph7.9 mph8 mph8.6 mph8.9 mph7.2 mph5.1 mph
Wind
Direction
237°
WSW
236°
SW
232°
SW
242°
WSW
274°
W
277°
W
288°
WNW
307°
NW
317°
NW
319°
NW
320°
NW
319°
NW
315°
NW
328°
NNW
337°
NNW
347°
NNW
349°
N
349°
N
347°
NNW
348°
NNW
349°
N
357°
N
26°
NNE
53°
NE
61°
ENE
60°
ENE
45°
NE
37°
NE
25°
NNE
14°
NNE
13°
NNE
358°
N
359°
N

N
16°
NNE
32°
NNE
47°
NE
62°
ENE
75°
ENE
78°
ENE
80°
E
81°
E
81°
E
79°
E
76°
ENE
70°
ENE
70°
ENE
71°
ENE

Daily Forecast

Date High Low Precip. Humidity
Today
Oct 29

Clouds
88 °F
74 °F
5%
61%
Friday
Oct 30

Rain
76 °F
58 °F
20%
32%
Saturday
Oct 31

Rain
81 °F
62 °F
30%
49%
Sunday
Nov 1

Rain
88 °F
67 °F
27%
39%
Monday
Nov 2

Clear
69 °F
55 °F
0%
45%
Tuesday
Nov 3

Clear
75 °F
52 °F
0%
42%
Wednesday
Nov 4

Rain
74 °F
60 °F
28%
57%
Thursday
Nov 5

Rain
79 °F
65 °F
61%
59%
Friday
Nov 6

Rain
79 °F
69 °F
93%
72%
Saturday
Nov 7

Rain
84 °F
70 °F
45%
54%
Sunday
Nov 8

Rain
79 °F
69 °F
86%
68%
Monday
Nov 9

Rain
84 °F
68 °F
23%
52%
Tuesday
Nov 10

Rain
82 °F
68 °F
78%
60%
Wednesday
Nov 11

Rain
83 °F
69 °F
35%
55%
Thursday
Nov 12

Rain
83 °F
70 °F
61%
57%
Friday
Nov 13

Rain
82 °F
70 °F
45%
63%


Temperature 8-14 Day Outlook



Precipitation 8-14 Day Outlook




Quick Links
Lake George News
Lake George Photos
Lake George Videos




About Us
Contact Us
Site Map
Search Site
Advertise With Us
   
George.USLakes.info
THE LAKE GEORGE WEBSITE

Copyright 2020, Lakes Online
Privacy    |    Legal